Regional Weather Roundup
Issued by NWS

Home | Current Version | Previous Version | Text Only | Print | Product List | Glossary Off
Versions: 1 2 3 4 5 6 7 8 9 10 11 12 13 14 15 16 17 18 19 20 21 22 23 24 25 26 27 28 29 30 31 32 33 34 35 36 37 38 39 40 41 42 43 44 45 46 47 48 49 50

000
ASUS44 KMEG 250410
RWRTN
TENNESSEE HOURLY STATE WEATHER ROUNDUP
NATIONAL WEATHER SERVICE MEMPHIS TN
1100 PM CDT FRI APR 24 2015

TNZ002-004-019-021-049-052-054-088>092-250500-
WEST TENNESSEE

CITY           SKY/WX    TMP DP  RH WIND       PRES   REMARKS
MEMPHIS INTL   LGT RAIN  57  54  89 SE13      29.84F
NWS MEMPHIS      N/A     55 N/A N/A MISG        N/A
JACKSON        LGT RAIN  56  53  90 SE7       29.87F
DYERSBURG      CLOUDY    55  43  62 S9        29.83F
UNION CITY     MOCLDY    54  32  43 S13       29.79F
PARIS          CLOUDY    52  50  93 S10       29.86F
LEXINGTON      CLOUDY    54  54 100 S5        29.89F
SAVANNAH       CLOUDY    54  32  43 CALM      29.93S
$$

TNZ008-025-027-028-033-062-065-066-250500-
NORTH MIDDLE TENNESSEE

CITY           SKY/WX    TMP DP  RH WIND       PRES   REMARKS
NASHVILLE      LGT RAIN  55  50  83 S7        29.90F
CLARKSVILLE    CLOUDY    57  47  69 S12       29.86F
SMYRNA         LGT RAIN  55  49  80 CALM      29.92S
COOKEVILLE     PTCLDY    57  48  72 SW3       29.90F
CROSSVILLE     CLOUDY    58  31  35 S6        29.92F
$$

TNZ061-075-076-078-094-096-097-250500-
SOUTH MIDDLE TENNESSEE

CITY           SKY/WX    TMP DP  RH WIND       PRES   REMARKS
FAYETTEVILLE     N/A     57  48  72 CALM      29.91R
TULLAHOMA      CLOUDY    57  46  67 CALM      29.91S
WINCHESTER     CLOUDY    57  52  82 CALM      29.90F
MCMINNVILLE    CLOUDY    54  52  94 CALM      29.91F
COLUMBIA       MOCLDY    54  32  43 CALM      29.89S
SHELBYVILLE    CLOUDY    55  54  94 CALM      29.92S
$$

TNZ017-018-042-046-047-250500-
NORTHEAST TENNESSEE

CITY           SKY/WX    TMP DP  RH WIND       PRES   REMARKS
TRI CITIES     CLOUDY    50  39  66 CALM      29.95F
ELIZABETHTON   CLOUDY    48  30  49 CALM      29.96F
$$

TNZ012-013-036-069-073-074-250500-
CENTRAL EAST TENNESSEE

CITY           SKY/WX    TMP DP  RH WIND       PRES   REMARKS
KNOXVILLE      CLOUDY    56  39  53 N3        29.93F
OAK RIDGE      CLOUDY    56  41  57 CALM      29.95F
GATLINBURG     CLOUDY    50  39  66 CALM      29.93F
MORRISTOWN     CLOUDY    52  43  71 CALM      29.95F
$$

TNZ083-085-099-250500-
SOUTHEAST TENNESSEE

CITY           SKY/WX    TMP DP  RH WIND       PRES   REMARKS
CHATTANOOGA    CLOUDY    61  45  55 CALM      29.92F
$$

SKY/WX REPORTED AS FAIR MEANS FEW OR NO CLOUDS BELOW
12 THOUSAND FEET.



USA.gov is the U.S. government's official web portal to all federal, state and local government web resources and services.